Orbital Elements at Epoch 2459200.5 (2020-Dec-17.0) TDB
Reference: JPL 18 (heliocentric ecliptic J2000)
Element | Value | Uncertainty (1-sigma) | Units |
e | .2287629671907787 | 4.1492e-08 | |
a | 2.29129759253513 | 6.8338e-09 | au |
q | 1.767133556549706 | 9.2734e-08 | au |
i | 7.415988126825371 | 4.272e-06 | deg |
node | 147.03614266165 | 3.4365e-05 | deg |
peri | 175.8169425139218 | 3.6867e-05 | deg |
M | 158.2000133294401 | 1.3772e-05 | deg |
tp | 2458643.795553581484 (2019-Jun-09.29555358) | 4.7054e-05 | TDB |
period | 1266.836813049559 3.47 | 5.6675e-06 1.552e-08 | d yr |
n | .2841723545540167 | 1.2713e-09 | deg/d |
Q | 2.815461628520554 | 8.3972e-09 | au |
|
| | Orbit Determination Parameters
Additional Information
|